[[{"header":{"parameterUnit":"m.s-1","parameterCategory":1,"la1":30.2991,"la2":30.254,"lo1":-89.0895,"lo2":-89.0444,"dy":0.0017,"dx":0.0017,"nx":28,"ny":28,"refTime":"2023-08-22T21:00:00:Z","depth":0,"parameterNumber":2,"parameterNumberName":"U-component_of_WINDS"},"data":[0,0,0,0,0,0,0,0,0,0,0,0,0,0,0,0,0,0,0,0,0,0,0,0,0,0,0,0,0,0,0,0,0,0,0,0,0,0,0,0,0,0,0,0,0,0,0,0,0,0,0,0,0,0,0,0,0,0,0.3521,0.3522,0,0.362,0.3621,0.3622,0.3666,0.3666,0.3666,0.3666,0.3772,0.3775,0.3778,0,0,0,0,0,0,0,0,0,0,0,0,0,0.3376,0.3378,0.3521,0.3522,0.3524,0.362,0.3621,0.3622,0.3666,0.3666,0.3666,0.3666,0.3771,0.3775,0.3778,0,0,0,0,0,0,0,0,0,0,0,0,0,0.3453,0.3379,0.3521,0.3557,0.3561,0.3619,0.3621,0.3623,0.3667,0.3666,0.3666,0.3666,0.377,0.3774,0.3779,0.381,0,0,0.3792,0.3794,0,0,0,0,0,0,0,0,0.3449,0.3458,0.3551,0.3555,0.356,0.3631,0.3609,0.3686,0.3667,0.3627,0.3666,0.3666,0.3726,0.3734,0.3753,0.3815,0.3819,0.3793,0.3795,0.3797,0.3798,0,0,0,0,0,0,0,0.3443,0.3454,0.356,0.3552,0.3557,0.357,0.3581,0.3624,0.3676,0.363,0.3634,0.3644,0.3728,0.3748,0.3756,0.3821,0.3793,0.3796,0.3799,0.3801,0.3914,0.3915,0,0,0,0,0,0,0.3431,0.345,0.3557,0.3563,0.3502,0.3573,0.3585,0.3608,0.3676,0.3686,0.3644,0.3646,0.3741,0.375,0.3759,0.3801,0.3797,0.3801,0.3804,0.3914,0.3914,0.3915,0,0,0,0,0,0,0.3428,0.344,0.3553,0.3507,0.3523,0.3575,0.3601,0.361,0.363,0.3687,0.3697,0.3655,0.3741,0.3753,0.3797,0.3805,0.3803,0.3807,0.3914,0.3914,0.3915,0.3883,0,0,0,0,0,0,0.3424,0.3439,0.345,0.3507,0.3525,0.3587,0.3602,0.3612,0.3637,0.364,0.3699,0.3709,0.3742,0.379,0.3801,0.3811,0.3811,0.3913,0.3914,0.3914,0.3883,0.3882,0.3881,0,0,0,0,0,0.3418,0.3438,0.3451,0.3463,0.354,0.3588,0.3598,0.3634,0.3638,0.365,0.3686,0.3707,0.3802,0.3794,0.3807,0.3818,0.3913,0.3914,0.3914,0.3884,0.3882,0.3881,0,0,0,0,0,0,0.3383,0.3447,0.3461,0.35,0.3538,0.3595,0.3612,0.3631,0.367,0.3672,0.3717,0.373,0.3769,0.3798,0.3788,0.3852,0.3859,0.3863,0.3832,0.3831,0.383,0.3822,0.3814,0,0,0,0,0,0.3379,0.3411,0.3466,0.3495,0.3513,0.3559,0.3581,0.3605,0.3647,0.3664,0.3704,0.3745,0.3784,0.3809,0.3848,0.3888,0.3902,0.3902,0.3901,0.39,0.3902,0.3926,0.3926,0.3918,0.3918,0.3917,0,0,0.3373,0.3412,0.3429,0.3489,0.3521,0.3554,0.3572,0.3607,0.3633,0.367,0.3713,0.3743,0.3793,0.3834,0.3854,0.386,0.3908,0.3901,0.3899,0.3903,0.3927,0.3927,0.3928,0.3918,0.3918,0.3918,0,0,0.3378,0.341,0.3438,0.3469,0.3517,0.3548,0.3554,0.3609,0.363,0.3673,0.3702,0.3734,0.38,0.3834,0.386,0.3877,0.3898,0.3889,0.3883,0.3906,0.3906,0.3907,0.3914,0.3916,0.3891,0.3891,0.3891,0,0.3364,0.3414,0.345,0.3483,0.3508,0.3542,0.3571,0.3601,0.366,0.3677,0.3682,0.3766,0.3801,0.3851,0.3855,0.3875,0.3885,0.3883,0.3903,0.3904,0.3906,0.3912,0.3915,0.389,0.389,0.389,0.389,0,0.3395,0.3429,0.3446,0.35,0.3528,0.3558,0.36,0.3624,0.3646,0.3677,0.3721,0.3765,0.3813,0.3827,0.3849,0.388,0.3882,0.3894,0.3902,0.3904,0.3912,0.3914,0.3888,0.3888,0.3889,0.3889,0,0,0.3381,0.3453,0.3459,0.3484,0.3539,0.3567,0.36,0.3646,0.3665,0.3705,0.3735,0.379,0.3801,0.3831,0.3857,0.3877,0.3888,0.3887,0.3889,0.3886,0.3925,0.3916,0.3918,0.3902,0.3903,0.3903,0.3921,0,0.3393,0.3451,0.3485,0.353,0.3562,0.3594,0.3623,0.3661,0.369,0.3723,0.3757,0.3795,0.3807,0.3825,0.3846,0.3882,0.3897,0.3881,0.3931,0.3933,0.3918,0.3922,0.3912,0.3927,0.3924,0.3925,0.3925,0,0.3416,0.3453,0.35,0.3552,0.3567,0.3591,0.3636,0.3667,0.3711,0.3731,0.3763,0.3789,0.3827,0.3832,0.3885,0.3873,0.3896,0.3917,0.3919,0.3925,0.3929,0.3928,0.3932,0.3934,0.393,0.393,0.3929,0,0.3401,0.3463,0.3499,0.3519,0.358,0.3597,0.3623,0.3667,0.3692,0.3732,0.3749,0.3793,0.3817,0.3852,0.389,0.389,0.3939,0.3947,0.3958,0.3957,0.3967,0.3966,0.3975,0.3981,0.3981,0.3981,0.3981,0,0.3411,0.3439,0.3493,0.3515,0.3548,0.3586,0.3618,0.3648,0.3686,0.3716,0.3748,0.3775,0.3824,0.3858,0.3889,0.3928,0.3939,0.3957,0.3965,0.3954,0.3952,0.397,0.397,0.3982,0.3982,0.3982,0.3981,0,0.34,0.3437,0.3479,0.3532,0.3546,0.3568,0.3615,0.3639,0.3669,0.3706,0.3718,0.3766,0.3808,0.3849,0.3907,0.3927,0.3966,0.3977,0.395,0.3955,0.3963,0.3962,0.3984,0.3989,0.3992,0.3991,0.3991,0,0.3404,0.3426,0.3482,0.3503,0.3528,0.3562,0.3587,0.3627,0.3652,0.3704,0.3722,0.3765,0.3803,0.3868,0.391,0.3954,0.3966,0.3971,0.3973,0.3962,0.3966,0.3965,0.3967,0.397,0.3969,0.3969,0.3969,0,0.3408,0.3425,0.3459,0.35,0.3529,0.3564,0.36,0.3616,0.3662,0.369,0.3732,0.376,0.3818,0.3861,0.391,0.3939,0.3962,0.3968,0.3973,0.3962,0.3946,0.3955,0.3947,0.3967,0.3967,0.3968,0.3968,0.3968,0.3405,0.3426,0.3468,0.3505,0.3536,0.3568,0.3593,0.3626,0.3661,0.3709,0.3731,0.3774,0.3818,0.3885,0.3914,0.395,0.3956,0.3963,0.3965,0.3966,0.3963,0.394,0.3959,0.3959,0.3959,0.3959,0.3959,0,0.3411,0.3439,0.3473,0.3521,0.355,0.3567,0.3608,0.3632,0.3668,0.3707,0.3742,0.3791,0.3833,0.3878,0.3923,0.3943,0.3955,0.3954,0.3953,0.3959,0.3955,0.3946,0.3943,0.3943,0.3943,0.3943,0.3943,0.3943,0.3417,0.3453,0.3475,0.3527,0.3556,0.3596,0.3617,0.3648,0.3679,0.3731,0.3766,0.3794,0.3835,0.3884,0.3924,0.3936,0.3952,0.3948,0.3963,0.3958,0.3959,0.3961,0.3952,0.3951,0.3951,0.3964,0.3964,0.3964]},{"header":{"parameterUnit":"m.s-1","parameterCategory":1,"la1":30.2991,"la2":30.254,"lo1":-89.0895,"lo2":-89.0444,"dy":0.0017,"dx":0.0017,"nx":28,"ny":28,"refTime":"2023-08-22T21:00:00:Z","depth":0,"parameterNumber":3,"parameterNumberName":"V-component_of_WINDS"},"data":[0,0,0,0,0,0,0,0,0,0,0,0,0,0,0,0,0,0,0,0,0,0,0,0,0,0,0,0,0,0,0,0,0,0,0,0,0,0,0,0,0,0,0,0,0,0,0,0,0,0,0,0,0,0,0,0,0,0,2.6033,2.6032,0,2.5943,2.5942,2.5941,2.586,2.5859,2.5858,2.5857,2.5758,2.5757,2.5755,0,0,0,0,0,0,0,0,0,0,0,0,0,2.6128,2.6127,2.6033,2.6032,2.603,2.5943,2.5942,2.5941,2.586,2.5859,2.5858,2.5857,2.5759,2.5757,2.5755,0,0,0,0,0,0,0,0,0,0,0,0,0,2.6067,2.6126,2.6033,2.598,2.5974,2.5944,2.5942,2.594,2.5861,2.5859,2.5858,2.5856,2.576,2.5757,2.5755,2.5767,0,0,2.5747,2.5745,0,0,0,0,0,0,0,0,2.6071,2.6064,2.5989,2.5984,2.5977,2.5911,2.5939,2.5882,2.5861,2.5904,2.5857,2.5856,2.581,2.5803,2.5789,2.5762,2.5758,2.5746,2.5745,2.5744,2.5743,0,0,0,0,0,0,0,2.6075,2.6067,2.5997,2.5988,2.5981,2.5959,2.5949,2.5928,2.5866,2.59,2.5894,2.5885,2.5806,2.5792,2.5786,2.5756,2.5746,2.5744,2.5742,2.5741,2.5734,2.5736,0,0,0,0,0,0,2.6088,2.6071,2.6,2.5994,2.6022,2.5958,2.5947,2.5934,2.5866,2.5854,2.5886,2.5881,2.5797,2.5789,2.5783,2.5792,2.5744,2.5741,2.574,2.5733,2.5735,2.5736,0,0,0,0,0,0,2.6091,2.6083,2.6003,2.6031,2.6019,2.5958,2.5944,2.5933,2.5918,2.5855,2.5843,2.5883,2.5796,2.5786,2.5772,2.5788,2.574,2.5738,2.5731,2.5734,2.5736,2.5812,0,0,0,0,0,0,2.6094,2.6084,2.609,2.6032,2.6018,2.5996,2.5945,2.5932,2.5915,2.5908,2.5849,2.5838,2.5794,2.5776,2.5769,2.5783,2.5736,2.573,2.5732,2.5735,2.5808,2.5817,2.5824,0,0,0,0,0,2.6098,2.6113,2.609,2.6082,2.6024,2.5997,2.5989,2.594,2.5917,2.592,2.588,2.584,2.5788,2.5775,2.5767,2.578,2.5728,2.5732,2.5735,2.5804,2.5815,2.5824,0,0,0,0,0,0,2.6171,2.6104,2.6078,2.6076,2.6044,2.5984,2.5987,2.5953,2.5924,2.5919,2.5857,2.5844,2.5837,2.5807,2.5795,2.5789,2.5752,2.5754,2.5808,2.5818,2.5826,2.5833,2.5733,0,0,0,0,0,2.6188,2.6174,2.6115,2.6119,2.6104,2.6049,2.6035,2.6001,2.5963,2.5948,2.5907,2.587,2.5845,2.583,2.5803,2.5804,2.5789,2.5809,2.5817,2.5824,2.5825,2.5823,2.5831,2.5747,2.5747,2.5746,0,0,2.6221,2.6183,2.6177,2.6133,2.6103,2.6089,2.6038,2.6024,2.6012,2.5945,2.593,2.5898,2.5853,2.5846,2.5841,2.5821,2.5846,2.5828,2.5834,2.5831,2.5827,2.5835,2.5842,2.5749,2.5748,2.5748,0,0,2.6273,2.6244,2.6244,2.6216,2.6173,2.6136,2.6137,2.6082,2.606,2.6044,2.5994,2.5977,2.5936,2.5906,2.5886,2.5929,2.589,2.5921,2.5963,2.5962,2.5969,2.5974,2.5989,2.5995,2.5924,2.5924,2.5924,0,2.6319,2.6297,2.6247,2.6237,2.6219,2.6161,2.616,2.6134,2.6084,2.6072,2.6051,2.5999,2.5964,2.595,2.5961,2.5946,2.5943,2.5927,2.5972,2.5977,2.5981,2.5995,2.6001,2.5928,2.5927,2.5927,2.5927,0,2.6355,2.634,2.6345,2.6301,2.6283,2.6278,2.6226,2.6213,2.6181,2.6146,2.613,2.6087,2.6051,2.6045,2.6012,2.6026,2.6015,2.5984,2.5946,2.5995,2.6006,2.6011,2.5934,2.5932,2.5931,2.593,0,0,2.645,2.6381,2.6383,2.6363,2.6312,2.6298,2.629,2.6257,2.6248,2.6215,2.6205,2.6173,2.6144,2.6121,2.6084,2.6083,2.6119,2.6051,2.6049,2.6065,2.6132,2.6155,2.6162,2.6094,2.6095,2.6096,2.6135,0,2.6494,2.6478,2.6433,2.643,2.6415,2.6361,2.6353,2.632,2.6287,2.6269,2.6231,2.621,2.6174,2.616,2.6156,2.6116,2.6132,2.6112,2.6083,2.6082,2.6096,2.6168,2.6192,2.6232,2.614,2.614,2.6141,0,2.6542,2.6517,2.6513,2.6463,2.6455,2.645,2.6417,2.64,2.6361,2.6337,2.6313,2.6273,2.6259,2.6225,2.6204,2.6192,2.6177,2.6156,2.6156,2.6151,2.6114,2.6164,2.6243,2.6249,2.6147,2.6147,2.6146,0,2.6612,2.6576,2.6569,2.6553,2.6495,2.6493,2.6468,2.6428,2.6412,2.6382,2.6371,2.6339,2.6321,2.6297,2.6249,2.6229,2.6233,2.6195,2.6212,2.6213,2.6214,2.6215,2.6292,2.6206,2.6206,2.6206,2.6206,0,2.6665,2.6665,2.66,2.6595,2.6593,2.6541,2.654,2.6509,2.6475,2.6462,2.6412,2.6401,2.6338,2.6319,2.6281,2.6269,2.6262,2.6241,2.623,2.6245,2.6248,2.6234,2.623,2.6207,2.6207,2.6207,2.6206,0,2.6742,2.6699,2.6688,2.6635,2.6622,2.6622,2.6576,2.6569,2.6534,2.6519,2.6512,2.6457,2.6432,2.6382,2.6342,2.6317,2.6314,2.6296,2.6328,2.6321,2.6341,2.6339,2.6411,2.6417,2.6329,2.633,2.633,0,2.6779,2.6778,2.6726,2.6715,2.6694,2.6677,2.6661,2.661,2.6594,2.6551,2.6549,2.6521,2.6496,2.6458,2.6413,2.6383,2.6363,2.639,2.6358,2.6373,2.6363,2.6364,2.6363,2.6397,2.6399,2.64,2.64,0,2.6848,2.6827,2.6807,2.678,2.6763,2.6738,2.6711,2.6704,2.6646,2.6632,2.6607,2.6588,2.655,2.6522,2.6485,2.6457,2.6419,2.6411,2.6413,2.6428,2.6446,2.6436,2.6347,2.641,2.6409,2.6408,2.6407,2.6407,2.6906,2.6902,2.6866,2.6845,2.682,2.6796,2.6787,2.6752,2.6732,2.6698,2.6669,2.6647,2.6608,2.6555,2.653,2.6511,2.6492,2.6495,2.6495,2.6497,2.6503,2.6451,2.6504,2.6503,2.6503,2.6503,2.6502,0,2.6972,2.6947,2.6929,2.6893,2.6877,2.6845,2.6813,2.6801,2.6784,2.6751,2.6729,2.6701,2.6674,2.6628,2.6597,2.659,2.6572,2.6584,2.6583,2.6577,2.6522,2.6523,2.6599,2.6599,2.6599,2.6599,2.6599,2.6599,2.7005,2.6998,2.6973,2.6952,2.6926,2.6906,2.6891,2.6868,2.6842,2.6814,2.6793,2.6764,2.6726,2.6692,2.6665,2.6652,2.6642,2.666,2.6641,2.659,2.6581,2.6572,2.6573,2.6659,2.6659,2.6698,2.6698,2.6699]}]]